• In Österreich
  • Länderverzeichnis
  • Für 7 Tage
  • Wassertemperatur
  • Satellitenkarten
  • Wetterkarte
  • News
  • Widgets
  • user-avatar
    Anmelden

    Stündliche Wetter Berat

    Heute, 14 August, Dienstag

    Zeit Temperatur Niederschläge Wind Luftdruck Luftfeuchtigkeit
    00:00 +24°C° 0 mm 1 m/S 743 mmHg 59%
    01:00 +24°C° 0 mm 1 m/S 743 mmHg 59%
    02:00 +24°C° 0 mm 1 m/S 743 mmHg 58%
    03:00 +24°C° 0 mm 1 m/S 743 mmHg 57%
    04:00 +24°C° 0 mm 1 m/S 742 mmHg 56%
    05:00 +25°C° 0 mm 1 m/S 743 mmHg 53%
    06:00 +27°C° 0 mm 1 m/S 743 mmHg 51%
    07:00 +29°C° 0 mm 1 m/S 743 mmHg 47%
    08:00 +30°C° 0 mm 1 m/S 743 mmHg 44%
    09:00 +32°C° 0 mm 1 m/S 743 mmHg 42%
    10:00 +33°C° 0 mm 1 m/S 743 mmHg 39%
    11:00 +33°C° 0 mm 1 m/S 743 mmHg 38%
    12:00 +35°C° 0 mm 2 m/S 743 mmHg 36%
    13:00 +34°C° 0 mm 2 m/S 742 mmHg 36%
    14:00 +34°C° 0 mm 2 m/S 742 mmHg 39%
    15:00 +34°C° 0 mm 2 m/S 742 mmHg 41%
    16:00 +32°C° 0 mm 2 m/S 742 mmHg 44%
    17:00 +31°C° 0,1 mm 2 m/S 742 mmHg 50%
    18:00 +29°C° 0,1 mm 2 m/S 742 mmHg 56%
    19:00 +27°C° 0,1 mm 1 m/S 742 mmHg 62%
    20:00 +26°C° 0,4 mm 1 m/S 742 mmHg 65%
    21:00 +26°C° 0,4 mm 1 m/S 742 mmHg 68%
    22:00 +25°C° 0,4 mm 1 m/S 742 mmHg 70%
    23:00 +25°C° 0,1 mm 1 m/S 742 mmHg 70%

    Morgen, 15 August, Mittwoch

    Zeit Temperatur Niederschläge Wind Luftdruck Luftfeuchtigkeit
    00:00 +24°C° 0,1 mm 1 m/S 742 mmHg 70%
    01:00 +24°C° 0,1 mm 1 m/S 742 mmHg 70%
    02:00 +24°C° 0 mm 1 m/S 742 mmHg 70%
    03:00 +23°C° 0 mm 1 m/S 742 mmHg 70%
    04:00 +23°C° 0 mm 1 m/S 742 mmHg 70%
    05:00 +25°C° 0 mm 1 m/S 742 mmHg 66%
    06:00 +26°C° 0 mm 1 m/S 742 mmHg 61%
    07:00 +27°C° 0 mm 1 m/S 742 mmHg 57%
    08:00 +29°C° 0,1 mm 1 m/S 742 mmHg 51%
    09:00 +31°C° 0,1 mm 1 m/S 742 mmHg 45%
    10:00 +33°C° 0,1 mm 1 m/S 742 mmHg 39%
    11:00 +33°C° 0,1 mm 1 m/S 742 mmHg 38%
    12:00 +35°C° 0,1 mm 2 m/S 742 mmHg 37%
    13:00 +35°C° 0,1 mm 3 m/S 742 mmHg 36%
    14:00 +34°C° 0,2 mm 3 m/S 742 mmHg 41%
    15:00 +33°C° 0,2 mm 3 m/S 742 mmHg 46%
    16:00 +30°C° 0,2 mm 3 m/S 741 mmHg 51%
    17:00 +29°C° 0,2 mm 2 m/S 742 mmHg 55%
    18:00 +28°C° 0,2 mm 2 m/S 742 mmHg 59%
    19:00 +27°C° 0,2 mm 1 m/S 742 mmHg 64%
    20:00 +26°C° 0,3 mm 1 m/S 742 mmHg 66%
    21:00 +26°C° 0,3 mm 1 m/S 742 mmHg 69%
    22:00 +25°C° 0,3 mm 2 m/S 743 mmHg 71%
    23:00 +25°C° 0,4 mm 2 m/S 743 mmHg 72%

    übermorgen, 16 August, Donnerstag

    Zeit Temperatur Niederschläge Wind Luftdruck Luftfeuchtigkeit
    00:00 +25°C° 0,4 mm 2 m/S 743 mmHg 73%
    01:00 +24°C° 0,4 mm 2 m/S 743 mmHg 74%
    02:00 +24°C° 0 mm 2 m/S 742 mmHg 75%
    03:00 +24°C° 0 mm 2 m/S 742 mmHg 75%
    04:00 +24°C° 0 mm 2 m/S 742 mmHg 75%
    05:00 +25°C° 0 mm 2 m/S 742 mmHg 72%
    06:00 +26°C° 0 mm 2 m/S 742 mmHg 69%
    07:00 +26°C° 0 mm 2 m/S 742 mmHg 66%
    08:00 +28°C° 0 mm 1 m/S 743 mmHg 58%
    09:00 +30°C° 0 mm 1 m/S 743 mmHg 51%
    10:00 +32°C° 0 mm 1 m/S 743 mmHg 44%
    11:00 +32°C° 0,2 mm 1 m/S 743 mmHg 42%
    12:00 +34°C° 0,2 mm 2 m/S 742 mmHg 41%
    13:00 +34°C° 0,2 mm 2 m/S 742 mmHg 39%
    14:00 +34°C° 0,2 mm 2 m/S 742 mmHg 42%
    15:00 +32°C° 0,2 mm 2 m/S 742 mmHg 45%
    16:00 +31°C° 0,2 mm 2 m/S 742 mmHg 49%
    17:00 +30°C° 0,3 mm 2 m/S 742 mmHg 54%
    18:00 +28°C° 0,3 mm 2 m/S 742 mmHg 59%
    19:00 +27°C° 0,3 mm 1 m/S 742 mmHg 64%
    20:00 +26°C° 0,2 mm 1 m/S 743 mmHg 66%
    21:00 +25°C° 0,2 mm 1 m/S 743 mmHg 68%
    22:00 +25°C° 0,2 mm 1 m/S 743 mmHg 70%
    23:00 +25°C° 0 mm 1 m/S 743 mmHg 70%

    17 August, Freitag

    Zeit Temperatur Niederschläge Wind Luftdruck Luftfeuchtigkeit
    00:00 +24°C° 0 mm 1 m/S 743 mmHg 69%
    01:00 +24°C° 0 mm 1 m/S 743 mmHg 69%
    02:00 +24°C° 0 mm 1 m/S 743 mmHg 69%
    03:00 +24°C° 0 mm 1 m/S 743 mmHg 69%
    04:00 +23°C° 0 mm 1 m/S 743 mmHg 69%
    05:00 +25°C° 0 mm 1 m/S 743 mmHg 65%
    06:00 +26°C° 0 mm 1 m/S 743 mmHg 61%
    07:00 +27°C° 0 mm 1 m/S 743 mmHg 57%
    08:00 +29°C° 0,1 mm 1 m/S 744 mmHg 52%
    09:00 +31°C° 0,1 mm 1 m/S 744 mmHg 47%
    10:00 +33°C° 0,1 mm 1 m/S 744 mmHg 42%
    11:00 +34°C° 0,1 mm 2 m/S 744 mmHg 41%
    12:00 +34°C° 0,1 mm 2 m/S 743 mmHg 41%
    13:00 +35°C° 0,1 mm 3 m/S 743 mmHg 40%
    14:00 +34°C° 0,4 mm 3 m/S 743 mmHg 43%
    15:00 +33°C° 0,4 mm 3 m/S 743 mmHg 46%
    16:00 +33°C° 0,4 mm 3 m/S 743 mmHg 49%
    17:00 +30°C° 0,6 mm 2 m/S 743 mmHg 56%
    18:00 +28°C° 0,6 mm 2 m/S 743 mmHg 62%
    19:00 +26°C° 0,6 mm 1 m/S 743 mmHg 68%
    20:00 +26°C° 0,5 mm 1 m/S 743 mmHg 71%
    21:00 +25°C° 0,5 mm 1 m/S 744 mmHg 73%
    22:00 +23°C° 0,5 mm 0 m/S 744 mmHg 75%
    23:00 +24°C° 0 mm 1 m/S 744 mmHg 75%

    18 August, Samstag

    Zeit Temperatur Niederschläge Wind Luftdruck Luftfeuchtigkeit
    00:00 +24°C° 0 mm 1 m/S 744 mmHg 74%
    01:00 +24°C° 0 mm 1 m/S 744 mmHg 74%
    02:00 +23°C° 0 mm 1 m/S 743 mmHg 74%
    03:00 +23°C° 0 mm 1 m/S 743 mmHg 74%
    04:00 +23°C° 0 mm 1 m/S 743 mmHg 73%
    05:00 +24°C° 0 mm 1 m/S 743 mmHg 69%
    06:00 +26°C° 0 mm 1 m/S 744 mmHg 64%
    07:00 +27°C° 0 mm 1 m/S 744 mmHg 59%
    08:00 +29°C° 0,1 mm 1 m/S 744 mmHg 53%
    09:00 +31°C° 0,1 mm 1 m/S 744 mmHg 48%
    10:00 +34°C° 0,1 mm 2 m/S 744 mmHg 42%
    11:00 +34°C° 0,2 mm 2 m/S 744 mmHg 40%
    12:00 +35°C° 0,2 mm 2 m/S 743 mmHg 39%
    13:00 +35°C° 0,2 mm 3 m/S 743 mmHg 38%
    14:00 +34°C° 0 mm 3 m/S 743 mmHg 41%
    15:00 +34°C° 0 mm 3 m/S 743 mmHg 44%
    16:00 +33°C° 0 mm 3 m/S 743 mmHg 48%
    17:00 +30°C° 0,4 mm 3 m/S 743 mmHg 54%
    18:00 +28°C° 0,4 mm 2 m/S 743 mmHg 60%
    19:00 +27°C° 0,4 mm 2 m/S 743 mmHg 67%
    20:00 +26°C° 0,4 mm 2 m/S 744 mmHg 69%
    21:00 +25°C° 0,4 mm 2 m/S 744 mmHg 72%
    22:00 +25°C° 0,4 mm 1 m/S 744 mmHg 74%
    23:00 +24°C° 0,2 mm 1 m/S 744 mmHg 74%

    19 August, Sonntag

    Zeit Temperatur Niederschläge Wind Luftdruck Luftfeuchtigkeit
    00:00 +24°C° 0,2 mm 2 m/S 744 mmHg 75%
    01:00 +24°C° 0,2 mm 2 m/S 744 mmHg 75%
    02:00 +24°C° 0 mm 2 m/S 744 mmHg 74%
    03:00 +24°C° 0 mm 2 m/S 743 mmHg 74%
    04:00 +23°C° 0 mm 2 m/S 743 mmHg 73%
    05:00 +25°C° 0 mm 2 m/S 743 mmHg 69%
    06:00 +26°C° 0 mm 2 m/S 744 mmHg 65%
    07:00 +27°C° 0 mm 2 m/S 744 mmHg 61%
    08:00 +29°C° 0 mm 2 m/S 744 mmHg 54%
    09:00 +31°C° 0 mm 2 m/S 744 mmHg 47%
    10:00 +34°C° 0 mm 2 m/S 744 mmHg 41%
    11:00 +35°C° 0,1 mm 2 m/S 744 mmHg 39%
    12:00 +35°C° 0,1 mm 2 m/S 744 mmHg 37%
    13:00 +36°C° 0,1 mm 3 m/S 743 mmHg 36%
    14:00 +35°C° 0 mm 3 m/S 743 mmHg 39%
    15:00 +35°C° 0 mm 3 m/S 743 mmHg 41%
    16:00 +34°C° 0 mm 3 m/S 743 mmHg 44%
    17:00 +31°C° 0 mm 2 m/S 743 mmHg 48%
    18:00 +30°C° 0 mm 2 m/S 743 mmHg 51%
    19:00 +29°C° 0 mm 1 m/S 743 mmHg 55%
    20:00 +28°C° 0 mm 1 m/S 743 mmHg 57%
    21:00 +27°C° 0 mm 1 m/S 744 mmHg 58%
    22:00 +26°C° 0 mm 1 m/S 744 mmHg 60%
    23:00 +26°C° 0 mm 2 m/S 744 mmHg 60%
    Mehr zeigen